Regional Weather Roundup
Issued by NWS Jackson, KY

Home | Current Version | Previous Version | Graphics & Text | Print | Product List | Glossary On
Versions: 1 2 3 4 5 6 7 8 9 10 11 12 13 14 15 16 17 18 19 20 21 22 23 24 25 26 27
000
ASUS43 KJKL 152010
RWRJKL

EAST KENTUCKY HOURLY WEATHER ROUNDUP
NATIONAL WEATHER SERVICE JACKSON KY
400 PM EDT SUN OCT 15 2017

NOTE: "FAIR" INDICATES FEW OR NO CLOUDS BELOW 12,000 FEET WITH
NO SIGNIFICANT WEATHER AND/OR OBSTRUCTIONS TO VISIBILITY.

* THESE REPORTS ARE NOT UNDER NWS QUALITY CONTROL AND MAY NOT
  REPORT WEATHER SUCH AS PRECIPITATION AND FOG.

KYZ079-080-083-085-087-088-110-112-115-119-120-152100
...EASTERN KENTUCKY...

CITY           SKY/WX    TMP DP  RH WIND       PRES   REMARKS
JACKSON        CLOUDY    77  69  76 VRB5      29.99F
LONDON         CLOUDY    79  63  57 SW12G21   29.98F
SOMERSET*      HVY RAIN  68  68 100 W8G22     30.02R
MONTICELLO*    LGT RAIN  70  69  97 NE5       30.02R
WILLIAMSBURG*  MOCLDY    77  64  65 SW8       29.99F
MIDDLESBORO*   MOSUNNY   78  65  64 S10       30.01F
HARLAN APT*    PTCLDY    79  61  53 SE3       30.02F
PIKE CO APT*   PTSUNNY   80  63  56 SW8       29.99F
BIG SANDY APT* CLOUDY    79  65  62 SW5       29.97F
MOREHEAD APT*  MOCLDY    77  63  61 W12G20    29.97F
$$

KYZ035-036-041-042-044-050-067-078-099-152100
...CENTRAL KENTUCKY...

CITY           SKY/WX    TMP DP  RH WIND       PRES   REMARKS
MT STERLING*   PTSUNNY   77  64  65 W16G23    29.98F
FLEMING/MASON* PTSUNNY   75  65  72 SW17G25   29.94F
DANVILLE*      MOSUNNY   77  64  65 W13G18    29.99F
LEXINGTON      MOSUNNY   77  62  59 W13G26    29.96F
FRANKFORT      CLOUDY    65  57  75 NW20G31   29.99R
LOUISVILLE     CLOUDY    62  57  83 NW14      30.04R
LEBANON*       MOCLDY    73  64  73 W10G18    29.99R HAZE
GLASGOW*       CLOUDY    67  61  80 NW14G24   30.03R
BOWLING GREEN  CLOUDY    64  59  83 NW17G26   30.06R
$$

KYZ091>093-OHZ055-061-077-WVZ005-015-034-035-042-152100
...SOUTHERN OHIO/WEST VIRGINIA...

CITY           SKY/WX    TMP DP  RH WIND       PRES   REMARKS
COVINGTON      LGT RAIN  60  60 100 NW16G25   30.00R
COLUMBUS       CLOUDY    66  57  72 NW22G35   29.90R
DAYTON         CLOUDY    59  54  83 W25G32    29.99R
WILMINGTON     LGT RAIN  59  57  93 NW26G39   29.97R FOG
HUNTINGTON     CLOUDY    78  65  63 SW8       29.94F
CHARLESTON     PTSUNNY   78  62  57 SW13      29.95F
PINEVILLE*     MOSUNNY   80  59  48 MISG      30.06F
BECKLEY        MOSUNNY   75  57  53 SW13G18   30.05F
BLUEFIELD      MOSUNNY   73  55  53 SW17G25   30.10F
LOGAN CO APT*  MOCLDY    79  63  57 SW10      29.99F
$$

VAZ002-007-008-TNZ017-027-036-066-071-152100
...SOUTHWEST VIRGINIA/EAST TENNESSEE...

CITY           SKY/WX    TMP DP  RH WIND       PRES   REMARKS
WISE*          MOSUNNY   75  61  60 SW16      30.10F
JONESVILLE*      N/A     77  63  61 SW13      30.06F
ABINGDON*      MOSUNNY   78  62  57 W16G22    30.09F
BRISTOL        PTSUNNY   79  64  60 SW9       30.07F
MORRISTOWN*    CLEAR     79  64  61 W9        30.04F
SEVIERVILLE*   PTCLDY    82  64  54 W10       30.04F
KNOXVILLE      MOSUNNY   79  68  69 S17       30.03F
LAFOLLETTE*    PTCLDY    79  66  65 S9        30.06F
OAK RIDGE      PTSUNNY   80  69  69 VRB6      30.04F
NASHVILLE      PTSUNNY   80  67  64 NW10      30.01F
$$

...KEY TO REMARKS...
VSB - VISIBILITY IN MILES
WCI - WIND CHILL INDEX
HX  - HEAT INDEX

$$




USA.gov is the U.S. government's official web portal to all federal, state and local government web resources and services.